KB9ZI Weather Reports


time (UTC)temp
C
wind
direction
speed
KPH
gust
KPH
rain 1hr
cm
rain 24hr
cm
rain mn
cm
humidity
%
barometer
mb
20260903070050 22 152 0.0 3.2 0.00 0.43 0.00 96 1010.5
20260903065744 22 152 0.0 3.2 0.00 0.43 0.00 96 1010.4
20260903065643 22 152 0.0 3.2 0.00 0.43 0.00 96 1010.4
20260903065342 22 152 0.0 0.0 0.00 0.43 0.00 96 1010.4
20260903065306 22 152 0.0 0.0 0.00 0.43 0.00 96 1010.4
20260903065148 22 152 0.0 0.0 0.00 0.43 0.00 95 1010.5
20260903065143 22 152 0.0 0.0 0.00 0.43 0.00 96 1010.5
20260903064804 22 152 0.0 0.0 0.00 0.43 0.00 95 1010.4
20260903064743 22 152 0.0 0.0 0.00 0.43 0.00 95 1010.4
20260903064542 22 152 0.0 0.0 0.00 0.43 0.00 95 1010.6
20260903064337 22 152 0.0 0.0 0.00 0.43 0.00 95 1010.6
20260903064304 22 154 0.0 0.0 0.00 0.43 0.00 95 1010.6
20260903064135 22 154 0.0 0.0 0.00 0.43 0.00 95 1010.7
20260903063939 22 152 0.0 0.0 0.00 0.43 0.00 95 1010.6
20260903063803 22 152 0.0 0.0 0.00 0.46 0.00 96 1010.7
20260903063744 22 152 0.0 0.0 0.00 0.46 0.00 96 1010.6
20260903063734 22 152 0.0 0.0 0.00 0.46 0.00 96 1010.6
20260903063333 22 151 0.0 0.0 0.00 0.46 0.00 96 1010.7
20260903063304 22 152 0.0 0.0 0.00 0.46 0.00 96 1010.7
20260903063135 22 152 0.0 0.0 0.00 0.46 0.00 96 1010.6
20260903062934 22 152 0.0 0.0 0.00 0.48 0.00 96 1010.7
20260903062814 22 152 0.0 0.0 0.00 0.48 0.00 96 1010.6
20260903062732 22 154 0.0 0.0 0.00 0.48 0.00 95 1010.7
20260903062532 22 152 0.0 0.0 0.00 0.48 0.00 95 1010.7
20260903062332 22 151 0.0 0.0 0.00 0.48 0.00 95 1010.6
20260903062326 22 154 0.0 0.0 0.00 0.48 0.00 95 1010.7
20260903062301 22 152 0.0 0.0 0.00 0.48 0.00 95 1010.6
20260903061933 22 152 0.0 0.0 0.00 0.48 0.00 95 1010.7
20260903061800 22 154 0.0 0.0 0.00 0.48 0.00 95 1010.7
20260903061733 22 151 0.0 0.0 0.00 0.48 0.00 95 1010.7
20260903061534 22 151 0.0 0.0 0.00 0.48 0.00 95 1010.7
20260903061423 22 152 0.0 0.0 0.00 0.48 0.00 95 1010.7
20260903061259 22 154 0.0 0.0 0.00 0.48 0.00 95 1010.7
20260903061121 22 152 0.0 0.0 0.00 0.48 0.00 95 1010.7
20260903060919 22 152 0.0 0.0 0.00 0.48 0.00 95 1010.7
20260903060759 22 152 0.0 0.0 0.00 0.48 0.00 95 1010.7
20260903060718 22 151 0.0 0.0 0.00 0.48 0.00 95 1010.7
20260903060513 22 152 0.0 0.0 0.00 0.48 0.00 95 1010.7
20260903060312 22 152 0.0 0.0 0.00 0.48 0.00 95 1010.7
20260903060258 22 152 0.0 0.0 0.00 0.48 0.00 95 1010.7
20260903060213 22 152 0.0 0.0 0.00 0.48 0.00 95 1010.6
20260903060011 22 152 0.0 0.0 0.00 0.48 0.00 95 1010.6
20260903055758 22 154 0.0 0.0 0.00 0.48 0.00 95 1010.7
20260903055710 22 154 0.0 0.0 0.00 0.48 0.00 95 1010.6
20260903055554 22 154 0.0 0.0 0.00 0.48 0.00 95 1010.7
20260903055541 22 151 0.0 0.0 0.00 0.48 0.00 95 1010.6
20260903055508 22 152 0.0 0.0 0.00 0.48 0.00 95 1010.7
20260903055109 22 151 0.0 0.0 0.00 0.48 0.00 95 1010.7
20260903054908 22 152 0.0 0.0 0.00 0.48 0.00 95 1010.7
20260903054809 22 152 0.0 0.0 0.00 0.48 0.00 95 1010.7
20260903054744 22 151 0.0 0.0 0.00 0.48 0.00 95 1010.7
20260903054641 22 152 0.0 0.0 0.00 0.48 0.00 95 1010.7
20260903054547 22 152 0.0 0.0 0.00 0.48 0.00 95 1010.7
20260903054503 22 154 0.0 0.0 0.00 0.48 0.00 95 1010.7
20260903054104 22 152 0.0 0.0 0.00 0.48 0.00 95 1010.7
20260903053905 22 152 0.0 0.0 0.00 0.48 0.00 95 1010.7
20260903053741 22 151 0.0 0.0 0.00 0.48 0.00 95 1010.7
20260903053656 22 154 0.0 0.0 0.00 0.48 0.00 95 1010.7
20260903053541 22 152 0.0 0.0 0.00 0.48 0.00 94 1010.8
20260903053529 22 152 0.0 0.0 0.00 0.48 0.00 95 1010.6
20260903053459 22 152 0.0 0.0 0.00 0.48 0.00 94 1010.8
20260903053055 22 152 0.0 0.0 0.00 0.48 0.00 95 1010.7
20260903052951 22 152 0.0 0.0 0.00 0.48 0.00 95 1010.7
20260903052741 22 152 0.0 0.0 0.00 0.48 0.00 95 1010.7
20260903052650 22 152 0.0 0.0 0.00 0.48 0.00 95 1010.7
20260903052544 22 152 0.0 0.0 0.00 0.48 0.00 95 1010.6
20260903052240 22 151 0.0 0.0 0.00 0.48 0.00 95 1010.6
20260903052044 22 152 0.0 0.0 0.00 0.48 0.00 95 1010.6
20260903051844 22 154 0.0 0.0 0.00 0.48 0.00 94 1010.6
20260903051739 22 154 0.0 0.0 0.00 0.48 0.00 94 1010.6
20260903051644 22 151 0.0 0.0 0.00 0.48 0.00 95 1010.6
20260903051624 22 152 0.0 0.0 0.00 0.48 0.00 94 1010.6
20260903051536 22 152 0.0 0.0 0.00 0.48 0.00 94 1010.6
20260903051457 22 152 0.0 0.0 0.00 0.48 0.00 94 1010.6
20260903051141 22 152 0.0 0.0 0.00 0.48 0.00 94 1010.6
20260903050844 22 152 0.0 0.0 0.00 0.48 0.00 94 1010.7
20260903050739 22 152 0.0 0.0 0.00 0.48 0.00 94 1010.7
20260903050645 22 154 0.0 0.0 0.00 0.48 0.00 94 1010.7
20260903050546 22 152 0.0 0.0 0.00 0.48 0.00 94 1010.7
20260903050531 22 152 0.0 0.0 0.00 0.48 0.00 94 1010.7
20260903050457 22 152 0.0 0.0 0.00 0.48 0.00 94 1010.7
20260903050142 22 152 0.0 0.0 0.00 0.48 0.00 94 1010.8
20260903045842 22 152 0.0 0.0 0.00 0.48 0.48 94 1010.7
20260903045752 22 152 0.0 0.0 0.00 0.48 0.48 94 1010.7
20260903045743 22 152 0.0 0.0 0.00 0.48 0.48 94 1010.7
20260903045546 22 152 0.0 0.0 0.00 0.48 0.48 94 1010.8
20260903045529 22 152 0.0 0.0 0.00 0.48 0.48 94 1010.7
20260903045455 22 152 0.0 0.0 0.00 0.48 0.48 94 1010.8
20260903045042 22 152 0.0 0.0 0.00 0.48 0.48 94 1010.8
20260903044941 22 152 0.0 0.0 0.00 0.48 0.48 94 1010.8
20260903044743 22 152 0.0 0.0 0.00 0.48 0.48 94 1010.8
20260903044642 22 152 0.0 0.0 0.00 0.48 0.48 94 1010.8
20260903044442 22 151 0.0 0.0 0.00 0.48 0.48 94 1010.8
20260903044244 22 152 0.0 0.0 0.00 0.48 0.48 93 1010.9
20260903044042 22 152 0.0 0.0 0.00 0.48 0.48 93 1010.7
20260903043941 22 154 0.0 0.0 0.00 0.48 0.48 93 1010.8
20260903043742 22 152 0.0 0.0 0.00 0.48 0.48 93 1010.8
20260903043642 22 154 0.0 0.0 0.00 0.48 0.48 93 1010.9
20260903043543 22 152 0.0 0.0 0.00 0.48 0.48 93 1010.9
20260903043242 22 152 0.0 0.0 0.00 0.48 0.48 93 1010.8
20260903043043 22 152 0.0 0.0 0.00 0.48 0.48 93 1010.9
20260903042842 22 152 0.0 0.0 0.00 0.48 0.48 93 1010.9
20260903042741 22 152 0.0 0.0 0.00 0.48 0.48 93 1010.9
20260903042642 22 152 0.0 0.0 0.00 0.48 0.48 93 1010.9
20260903042542 22 152 0.0 0.0 0.00 0.48 0.48 93 1010.9
20260903042242 22 152 0.0 0.0 0.00 0.48 0.48 93 1010.9
20260903042144 23 154 0.0 0.0 0.00 0.48 0.48 93 1010.9
20260903041842 23 154 0.0 0.0 0.00 0.48 0.48 93 1010.9
20260903041737 23 152 0.0 0.0 0.00 0.48 0.48 93 1011.0
20260903041642 23 152 0.0 0.0 0.00 0.48 0.48 93 1011.0
20260903041442 23 151 0.0 0.0 0.00 0.48 0.48 93 1011.0
20260903041238 23 152 0.0 0.0 0.00 0.48 0.48 93 1011.1
20260903041043 23 154 0.0 0.0 0.00 0.48 0.48 93 1011.0
20260903040842 23 154 0.0 0.0 0.00 0.48 0.48 93 1011.0
20260903040750 23 152 0.0 0.0 0.00 0.48 0.48 93 1011.0
20260903040738 23 154 0.0 0.0 0.00 0.48 0.48 93 1011.1
20260903040442 23 152 0.0 0.0 0.00 0.48 0.48 92 1011.1
20260903040250 23 152 0.0 0.0 0.00 0.48 0.48 92 1011.0
20260903040237 23 152 0.0 0.0 0.00 0.48 0.48 92 1011.1
20260903040144 23 151 0.0 0.0 0.00 0.48 0.48 92 1011.0
20260903035842 23 152 0.0 0.0 0.00 0.48 0.48 92 1011.0
20260903035734 23 152 0.0 0.0 0.00 0.48 0.48 92 1011.0
20260903035641 23 152 0.0 0.0 0.00 0.48 0.48 92 1011.0
20260903035442 23 151 0.0 0.0 0.00 0.48 0.48 92 1011.1
20260903035345 23 154 0.0 0.0 0.00 0.48 0.48 92 1010.9
20260903035235 23 152 0.0 0.0 0.00 0.48 0.48 92 1011.0
20260903035042 23 152 0.0 0.0 0.00 0.48 0.48 92 1011.0
20260903034843 23 152 0.0 0.0 0.00 0.48 0.48 92 1011.0
20260903034749 23 152 0.0 0.0 0.00 0.48 0.48 92 1011.0
20260903034731 23 152 0.0 0.0 0.00 0.48 0.48 92 1011.0
20260903034441 23 154 0.0 0.0 0.00 0.48 0.48 92 1011.1
20260903034245 23 152 0.0 0.0 0.00 0.48 0.48 92 1011.1
20260903034233 23 155 0.0 0.0 0.00 0.48 0.48 92 1011.1
20260903034042 23 152 0.0 0.0 0.00 0.48 0.48 92 1011.1
20260903033941 23 154 0.0 0.0 0.00 0.48 0.48 92 1011.0
20260903033728 23 152 0.0 0.0 0.00 0.48 0.48 91 1011.1
20260903033642 23 152 0.0 0.0 0.00 0.48 0.48 91 1011.1
20260903033444 23 152 0.0 0.0 0.00 0.48 0.48 91 1011.1
20260903033346 23 154 0.0 0.0 0.00 0.48 0.48 91 1011.0
20260903033229 23 154 0.0 0.0 0.00 0.48 0.48 91 1011.0
20260903033042 23 152 0.0 0.0 0.00 0.48 0.48 91 1011.0
20260903032844 23 154 0.0 0.0 0.00 0.48 0.48 91 1011.0
20260903032728 23 152 0.0 0.0 0.00 0.48 0.48 91 1011.1
20260903032641 23 154 0.0 0.0 0.00 0.48 0.48 91 1011.1
20260903032442 23 154 0.0 0.0 0.00 0.48 0.48 91 1011.1
20260903032243 23 154 0.0 0.0 0.00 0.48 0.48 91 1011.1
20260903032228 23 152 0.0 0.0 0.00 0.48 0.48 92 1011.0
20260903032144 23 152 0.0 0.0 0.00 0.48 0.48 91 1011.1
20260903031842 23 154 0.0 0.0 0.00 0.48 0.48 91 1011.1
20260903031744 23 152 0.0 0.0 0.00 0.48 0.48 91 1011.1
20260903031727 23 152 0.0 0.0 0.00 0.48 0.48 91 1011.1
20260903031442 23 151 0.0 0.0 0.00 0.48 0.48 91 1011.1
20260903031240 23 154 0.0 0.0 0.00 0.48 0.48 91 1011.1
20260903031227 23 152 0.0 0.0 0.00 0.48 0.48 91 1011.1
20260903031039 23 152 0.0 0.0 0.00 0.48 0.48 92 1011.1
20260903030832 23 152 0.0 0.0 0.00 0.48 0.48 92 1011.1
20260903030744 23 152 0.0 0.0 0.00 0.48 0.48 92 1011.2
20260903030727 23 152 0.0 0.0 0.00 0.48 0.48 92 1011.1
20260903030431 23 152 0.0 0.0 0.00 0.48 0.48 91 1011.1
20260903030337 23 152 0.0 0.0 0.00 0.48 0.48 91 1011.1
20260903030228 23 152 0.0 0.0 0.00 0.48 0.48 91 1011.1
20260903030031 23 152 0.0 0.0 0.00 0.48 0.48 91 1011.1
20260903025830 23 152 0.0 0.0 0.00 0.48 0.48 91 1011.1
20260903025730 23 151 0.0 0.0 0.00 0.48 0.48 91 1011.1
20260903025630 23 152 0.0 0.0 0.00 0.48 0.48 91 1011.1
20260903025430 23 152 0.0 0.0 0.00 0.48 0.48 91 1011.1
20260903025334 23 154 0.0 0.0 0.00 0.48 0.48 90 1011.1
20260903025231 23 154 0.0 0.0 0.00 0.48 0.48 90 1011.1
20260903025024 23 154 0.0 0.0 0.00 0.48 0.48 90 1011.0
20260903024922 23 154 0.0 0.0 0.00 0.48 0.48 90 1011.1
20260903024743 24 152 0.0 0.0 0.00 0.48 0.48 90 1011.1
20260903024728 24 151 0.0 0.0 0.00 0.48 0.48 90 1011.0
20260903024523 24 152 0.0 0.0 0.00 0.48 0.48 90 1011.1
20260903024228 -17 151 0.0 0.0 0.00 0.48 0.48 1011.2
20260903024007 -17 0.0 0.0 0.00 0.48 0.48
20260903023807 -17 0.0 0.0 0.00 0.48 0.48
20260903023544 -17 0.0 0.0 0.00 0.48 0.48
20260903023524 -17 0.0 0.0 0.00 0.48 0.48
20260903023237 -17 0.0 0.0 0.00 0.48 0.48
20260903023034 -17 0.0 0.0 0.00 0.48 0.48
20260903022809 -17 0.0 0.0 0.00 0.48 0.48 1010.9
20260903022707 -17 0.0 0.0 0.00 0.48 0.48 1010.9
20260903022506 -17 0.0 0.0 0.00 0.48 0.48 1010.9
20260903022320 25 151 0.0 0.0 0.00 0.48 0.48 89 1010.9
20260903022107 25 151 0.0 0.0 0.00 0.48 0.48 89 1010.9
20260903021851 25 151 0.0 0.0 0.00 0.48 0.48 89 1010.9
20260903021804 25 151 0.0 0.0 0.00 0.48 0.48 89 1011.0
20260903021757 25 151 0.0 0.0 0.00 0.48 0.48 89 1011.0
20260903021549 25 151 0.0 0.0 0.00 0.48 0.48 89 1011.1
20260903021302 25 154 0.0 0.0 0.00 0.48 0.48 89 1011.0
20260903021241 25 152 0.0 0.0 0.00 0.48 0.48 89 1011.0
20260903021037 25 154 0.0 0.0 0.00 0.48 0.48 89 1011.0
20260903020836 25 154 0.0 0.0 0.00 0.48 0.48 89 1011.0
20260903020747 25 152 0.0 0.0 0.00 0.48 0.48 88 1011.0
20260903020636 25 154 0.0 0.0 0.00 0.48 0.48 88 1011.0
20260903020537 25 154 0.0 0.0 0.00 0.48 0.48 88 1011.0
20260903020250 25 152 0.0 0.0 0.00 0.48 0.48 88 1010.9
20260903020236 25 152 0.0 0.0 0.00 0.48 0.48 88 1011.0
20260903020035 25 152 0.0 0.0 0.00 0.48 0.48 88 1011.0
20260903015835 25 152 0.0 0.0 0.00 0.48 0.48 88 1010.9
20260903015802 25 152 0.0 0.0 0.00 0.48 0.48 88 1010.9
20260903015735 25 151 0.0 0.0 0.00 0.48 0.48 87 1010.9
20260903015434 25 152 0.0 0.0 0.00 0.48 0.48 87 1011.0
20260903015250 25 151 0.0 0.0 0.00 0.48 0.48 87 1010.9
20260903015233 25 154 0.0 0.0 0.00 0.48 0.48 87 1010.9
20260903015130 25 152 0.0 0.0 0.00 0.48 0.48 87 1010.9
20260903014831 25 152 0.0 0.0 0.00 0.48 0.48 87 1010.9
20260903014747 25 154 0.0 0.0 0.00 0.48 0.48 87 1010.9
20260903014631 25 154 0.0 0.0 0.00 0.48 0.48 87 1010.9
20260903014430 25 152 0.0 0.0 0.00 0.48 0.48 87 1010.9
20260903014328 25 152 0.0 0.0 0.00 0.48 0.48 87 1010.9
20260903014249 25 152 0.0 0.0 0.00 0.48 0.48 87 1010.9
20260903014029 25 152 0.0 0.0 0.00 0.48 0.48 87 1010.9
20260903013830 25 152 0.0 0.0 0.00 0.48 0.48 87 1010.9
20260903013749 25 152 0.0 0.0 0.00 0.48 0.48 87 1010.9
20260903013729 25 151 0.0 0.0 0.00 0.48 0.48 87 1010.9
20260903013432 25 152 0.0 0.0 0.00 0.48 0.48 87 1010.8
20260903013253 25 152 0.0 0.0 0.00 0.48 0.48 87 1010.9
20260903013229 25 154 0.0 0.0 0.00 0.48 0.48 87 1010.9
20260903013022 26 152 0.0 0.0 0.00 0.48 0.48 87 1010.8
20260903012919 26 152 0.0 0.0 0.00 0.48 0.48 87 1010.7
20260903012743 26 154 0.0 0.0 0.00 0.48 0.48 87 1010.7
20260903012619 26 152 0.0 0.0 0.00 0.48 0.48 87 1010.7
20260903012419 26 154 0.0 0.0 0.00 0.48 0.48 86 1010.7
20260903012255 26 154 0.0 0.0 0.00 0.48 0.48 86 1010.6
20260903012218 26 154 0.0 0.0 0.00 0.48 0.48 86 1010.6
20260903012119 26 154 0.0 0.0 0.00 0.48 0.48 86 1010.6
20260903011819 26 154 0.0 0.0 0.00 0.48 0.48 87 1010.6
20260903011745 26 152 0.0 0.0 0.00 0.48 0.48 87 1010.7
20260903011615 26 152 0.0 0.0 0.00 0.48 0.48 87 1010.7
20260903011511 26 154 0.0 0.0 0.00 0.48 0.48 87 1010.7
20260903011214 26 151 0.0 0.0 0.00 0.48 0.48 86 1010.8
20260903011058 26 152 0.0 0.0 0.00 0.48 0.48 84 1010.6
20260903011045 26 154 0.0 0.0 0.00 0.48 0.48 85 1010.7
20260903011006 26 154 0.0 0.0 0.00 0.48 0.48 84 1010.6
20260903010711 26 154 0.0 0.0 0.00 0.48 0.48 84 1010.5
20260903010412 26 152 0.0 0.0 0.00 0.48 0.48 84 1010.4
20260903010251 26 151 0.0 0.0 0.00 0.48 0.48 83 1010.3
20260903010214 26 154 0.0 0.0 0.00 0.48 0.48 83 1010.3
20260903010115 26 152 0.0 0.0 0.00 0.48 0.48 83 1010.4
20260903005811 26 152 0.0 0.0 0.00 0.48 0.48 83 1010.3
20260903005738 26 152 0.0 0.0 0.00 0.48 0.48 83 1010.4
20260903005610 26 152 0.0 0.0 0.00 0.48 0.48 83 1010.3
20260903005410 26 152 0.0 0.0 0.00 0.48 0.48 83 1010.3
20260903005311 26 152 0.0 0.0 0.00 0.48 0.48 82 1010.5
20260903005239 26 152 0.0 0.0 0.00 0.48 0.48 82 1010.5
20260903005009 27 152 0.0 0.0 0.00 0.48 0.48 82 1010.4
20260903004809 27 152 0.0 0.0 0.00 0.48 0.48 82 1010.4
20260903004740 27 152 0.0 0.0 0.00 0.48 0.48 82 1010.4
20260903004706 27 152 0.0 0.0 0.00 0.48 0.48 82 1010.4
20260903004404 27 154 0.0 0.0 0.00 0.48 0.48 82 1010.3
20260903004237 27 152 0.0 0.0 0.00 0.48 0.48 82 1010.3
20260903004205 27 152 0.0 0.0 0.00 0.48 0.48 82 1010.3
20260903004103 27 152 0.0 0.0 0.00 0.48 0.48 81 1010.4
20260903003901 27 152 0.0 0.0 0.00 0.48 0.48 80 1010.4
20260903003736 27 152 0.0 0.0 0.00 0.48 0.48 80 1010.4
20260903003604 27 152 0.0 0.0 0.00 0.48 0.48 79 1010.4
20260903003403 27 152 0.0 0.0 0.00 0.48 0.48 79 1010.4
20260903003237 27 152 0.0 0.0 0.00 0.48 0.48 79 1010.4
20260903003200 27 154 0.0 0.0 0.00 0.48 0.48 78 1010.4
20260903002959 27 152 0.0 0.0 0.00 0.48 0.48 78 1010.4
20260903002758 27 152 0.0 0.0 0.00 0.48 0.48 77 1010.5
20260903002736 27 154 0.0 0.0 0.00 0.48 0.48 77 1010.4
20260903002654 27 152 0.0 0.0 0.00 0.48 0.48 77 1010.5
20260903002458 27 152 0.0 0.0 0.00 0.48 0.48 76 1010.5
20260903002234 28 152 0.0 0.0 0.00 0.48 0.48 76 1010.5
20260903002159 28 154 0.0 0.0 0.00 0.48 0.48 76 1010.5
20260903001957 28 152 0.0 0.0 0.00 0.48 0.48 76 1010.4
20260903001757 28 152 0.0 0.0 0.00 0.48 0.48 75 1010.4
20260903001735 28 152 0.0 0.0 0.00 0.48 0.48 75 1010.5
20260903001553 28 152 0.0 0.0 0.00 0.48 0.48 74 1010.4
20260903001354 28 152 0.0 0.0 0.00 0.48 0.48 74 1010.4
20260903001251 28 151 0.0 0.0 0.00 0.48 0.48 74 1010.4
20260903001233 28 152 0.0 0.0 0.00 0.48 0.48 74 1010.4
20260903001052 28 152 0.0 0.0 0.00 0.48 0.48 73 1010.5
20260903000753 29 152 0.0 0.0 0.00 0.48 0.48 72 1010.5
20260903000732 29 152 0.0 0.0 0.00 0.48 0.48 72 1010.4
20260903000551 29 154 0.0 0.0 0.00 0.48 0.48 71 1010.4
20260903000355 29 152 0.0 0.0 0.00 0.48 0.48 71 1010.5
20260903000233 29 154 0.0 0.0 0.00 0.48 0.48 70 1010.5
20260903000151 29 152 0.0 0.0 0.00 0.48 0.48 71 1010.5
20260902235950 30 152 0.0 1.6 0.00 0.48 0.48 71 1010.5
20260902235749 30 154 0.0 3.2 0.00 0.48 0.48 70 1010.6
20260902235730 30 154 0.0 3.2 0.00 0.48 0.48 69 1010.5
20260902235648 30 152 0.0 3.2 0.00 0.48 0.48 69 1010.5
20260902235442 30 152 0.0 3.2 0.00 0.48 0.48 69 1010.5
20260902235231 30 151 0.0 3.2 0.00 0.48 0.48 69 1010.5
20260902235145 30 152 0.0 3.2 0.00 0.48 0.48 69 1010.5
20260902234949 30 152 0.0 3.2 0.00 0.48 0.48 68 1010.4
20260902234732 30 152 0.0 3.2 0.00 0.48 0.48 69 1010.5
20260902234547 30 152 0.0 3.2 0.00 0.48 0.48 69 1010.5
20260902234339 30 152 0.0 3.2 0.00 0.48 0.48 70 1010.6
20260902234238 30 152 0.0 3.2 0.00 0.48 0.48 70 1010.6
20260902234233 30 154 0.0 3.2 0.00 0.48 0.48 71 1010.5
20260902234032 30 152 0.0 3.2 0.00 0.48 0.48 68 1010.5
20260902233736 30 154 0.0 3.2 0.00 0.48 0.48 67 1010.5
20260902233730 30 151 0.0 3.2 0.00 0.48 0.48 67 1010.5
20260902233532 31 152 0.0 3.2 0.00 0.48 0.48 66 1010.5
20260902233331 31 151 0.0 3.2 0.00 0.48 0.48 67 1010.5
20260902233230 31 151 0.0 3.2 0.00 0.48 0.48 68 1010.6
20260902233131 31 151 0.0 3.2 0.00 0.48 0.48 68 1010.5
20260902232932 31 152 0.0 4.8 0.00 0.48 0.48 65 1010.6
20260902232831 31 152 0.0 4.8 0.00 0.48 0.48 66 1010.5
20260902232729 31 152 0.0 4.8 0.00 0.48 0.48 66 1010.5
20260902232530 31 154 0.0 4.8 0.00 0.48 0.48 65 1010.6
20260902232331 31 151 0.0 4.8 0.00 0.48 0.48 67 1010.6
20260902232241 31 152 0.0 4.8 0.00 0.48 0.48 67 1010.6
20260902232129 31 154 0.0 4.8 0.00 0.48 0.48 68 1010.6
20260902231928 31 135 0.0 3.2 0.00 0.48 0.48 67 1010.5
20260902231730 31 133 0.0 3.2 0.00 0.48 0.48 64 1010.6
20260902231533 31 134 0.0 3.2 0.00 0.48 0.48 63 1010.6
20260902231526 31 134 0.0 3.2 0.00 0.48 0.48 64 1010.6
20260902231226 31 134 0.0 3.2 0.00 0.48 0.48 63 1010.6
20260902231129 31 133 0.0 3.2 0.00 0.48 0.48 64 1010.6
20260902230923 31 130 0.0 3.2 0.00 0.48 0.48 64 1010.6
20260902230728 31 130 0.0 3.2 0.00 0.48 0.48 63 1010.6
20260902230721 31 131 0.0 3.2 0.00 0.48 0.48 63 1010.6
20260902230520 31 131 0.0 3.2 0.00 0.48 0.48 66 1010.6
20260902230319 31 130 0.0 3.2 0.00 0.48 0.48 65 1010.6
20260902230225 31 128 0.0 3.2 0.00 0.48 0.48 66 1010.6
20260902230119 31 128 0.0 3.2 0.00 0.48 0.48 66 1010.6
20260902230111 30 128 0.0 3.2 0.00 0.48 0.48 65 1010.6
20260902225712 30 130 0.0 4.8 0.00 0.48 0.48 66 1010.7
20260902225516 30 128 0.0 4.8 0.00 0.48 0.48 66 1010.6
20260902225317 30 127 0.0 4.8 0.00 0.48 0.48 66 1010.7
20260902225214 30 130 0.0 4.8 0.00 0.48 0.48 67 1010.6
20260902225116 30 128 0.0 4.8 0.00 0.48 0.48 68 1010.7
20260902224914 30 128 0.0 4.8 0.00 0.48 0.48 67 1010.6
20260902224711 30 130 0.0 3.2 0.00 0.48 0.48 68 1010.6
20260902224513 30 130 0.0 3.2 0.00 0.48 0.48 67 1010.6
20260902224414 30 182 0.0 3.2 0.00 0.48 0.48 68 1010.6
20260902224214 30 190 0.0 3.2 0.00 0.48 0.48 68 1010.5
20260902224210 30 179 0.0 3.2 0.00 0.48 0.48 68 1010.5
20260902223911 30 190 0.0 3.2 0.00 0.48 0.48 70 1010.6
20260902223715 30 190 0.0 1.6 0.00 0.48 0.48 68 1010.5
20260902223709 30 193 0.0 1.6 0.00 0.48 0.48 68 1010.5
20260902223512 30 193 0.0 0.0 0.00 0.48 0.48 68 1010.6
20260902223313 30 193 0.0 4.8 0.00 0.48 0.48 68 1010.7
20260902223207 30 192 0.0 6.4 0.00 0.48 0.48 67 1010.7
20260902223117 30 193 0.0 6.4 0.00 0.48 0.48 69 1010.7
20260902223112 30 192 0.0 6.4 0.00 0.48 0.48 68 1010.6
20260902222959 30 193 0.0 6.4 0.00 0.48 0.48 69 1010.7
20260902222945 30 193 0.0 6.4 0.00 0.48 0.48 68 1010.7
20260902222506 30 193 0.0 6.4 0.00 0.48 0.48 65 1010.7
20260902222306 30 192 0.0 6.4 0.00 0.48 0.48 66 1010.8
20260902222208 30 193 0.0 4.8 0.00 0.48 0.48 65 1010.7
20260902222105 30 192 0.0 4.8 0.00 0.48 0.48 65 1010.7
20260902221905 30 190 0.0 6.4 0.00 0.48 0.48 64 1010.7
20260902221708 30 192 0.0 6.4 0.00 0.48 0.48 64 1010.7
20260902221603 30 193 0.0 6.4 0.00 0.48 0.48 64 1010.7
20260902221402 30 193 0.0 6.4 0.00 0.48 0.48 64 1010.7
20260902221217 31 190 0.0 6.4 0.00 0.48 0.48 66 1010.6
20260902221104 30 193 0.0 6.4 0.00 0.48 0.48 64 1010.7
20260902220903 30 193 0.0 6.4 0.00 0.48 0.48 66 1010.7
20260902220705 30 195 0.0 6.4 0.00 0.48 0.48 66 1010.7
20260902220504 31 189 0.0 6.4 0.00 0.48 0.48 65 1010.7
20260902220302 31 190 0.0 6.4 0.00 0.48 0.48 65 1010.7
20260902220211 31 189 0.0 6.4 0.00 0.48 0.48 66 1010.6
20260902220206 31 188 0.0 6.4 0.00 0.48 0.48 64 1010.6
20260902220009 31 37 0.0 4.8 0.00 0.48 0.48 67 1010.7
20260902215705 31 37 0.0 3.2 0.00 0.48 0.48 68 1010.7
20260902215505 30 35 0.0 1.6 0.00 0.48 0.48 69 1010.7
20260902215306 30 35 0.0 3.2 0.00 0.48 0.48 69 1010.7
20260902215207 31 178 0.0 3.2 0.00 0.48 0.48 70 1010.7
20260902215107 31 178 0.0 3.2 0.00 0.48 0.48 70 1010.7
20260902214955 30 178 0.0 6.4 0.00 0.48 0.48 66 1010.8
20260902214951 30 178 0.0 6.4 0.00 0.48 0.48 66 1010.8
20260902214937 31 179 0.0 4.8 0.00 0.48 0.48 70 1010.7
20260902214535 30 180 0.0 6.4 0.00 0.48 0.48 68 1010.9
20260902214237 30 179 0.0 6.4 0.00 0.48 0.48 67 1010.8
20260902214202 30 179 0.0 6.4 0.00 0.48 0.48 67 1010.8
20260902214039 30 179 0.0 6.4 0.00 0.48 0.48 66 1010.8
20260902213835 31 178 0.0 6.4 0.00 0.48 0.48 65 1010.9
20260902213701 31 172 0.0 6.4 0.00 0.48 0.48 66 1010.9
20260902213636 31 171 0.0 6.4 0.00 0.48 0.48 65 1010.8
20260902213436 31 171 0.0 6.4 0.00 0.48 0.48 65 1010.8
20260902213302 30 172 0.0 8.0 0.00 0.48 0.48 64 1010.8
20260902213201 31 172 0.0 8.0 0.00 0.48 0.48 64 1010.8
20260902213102 31 172 0.0 8.0 0.00 0.48 0.48 65 1010.9
20260902212807 31 157 0.0 8.0 0.00 0.48 0.48 64 1010.9
20260902212702 31 155 0.0 8.0 0.00 0.48 0.48 66 1010.9
20260902212607 31 151 0.0 8.0 0.00 0.48 0.48 66 1010.9
20260902212348 31 151 0.0 8.0 0.00 0.48 0.48 66 1011.0
20260902212245 31 0 0.0 6.4 0.00 0.48 0.48 67 1010.9
20260902212202 31 0 0.0 6.4 0.00 0.48 0.48 67 1010.9
20260902211946 31 1 0.0 6.4 0.00 0.48 0.48 66 1010.9
20260902211852 31 0 0.0 6.4 0.00 0.48 0.48 63 1011.0
20260902211701 31 0 0.0 6.4 0.00 0.48 0.48 63 1011.0
20260902211548 31 42 0.0 6.4 0.00 0.48 0.48 67 1011.0
20260902211349 31 58 0.0 6.4 0.00 0.48 0.48 66 1010.9
20260902211201 31 17 0.0 4.8 0.00 0.48 0.48 67 1011.0
20260902211137 31 17 0.0 4.8 0.00 0.48 0.48 66 1011.0
20260902210937 31 63 0.0 4.8 0.00 0.48 0.48 65 1011.0
20260902210835 31 152 0.0 4.8 0.00 0.48 0.48 64 1011.0
20260902210702 31 151 0.0 4.8 0.00 0.48 0.48 64 1011.0
20260902210535 31 152 0.0 6.4 0.00 0.48 0.48 64 1011.0
20260902210432 31 41 0.0 6.4 0.00 0.48 0.48 64 1011.0
20260902210203 31 37 0.0 6.4 0.00 0.48 0.48 64 1011.0
20260902210134 31 37 0.0 6.4 0.00 0.48 0.48 64 1011.1
20260902210008 31 65 0.0 6.4 0.00 0.48 0.48 66 1011.1
20260902205949 31 32 0.0 6.4 0.00 0.48 0.48 65 1011.1
20260902205918 31 65 0.0 6.4 0.00 0.48 0.48 66 1011.1
20260902205534 31 144 0.0 4.8 0.00 0.48 0.48 62 1011.1
20260902205434 31 142 0.0 4.8 0.00 0.48 0.48 65 1011.1
20260902205201 31 37 0.0 6.4 0.00 0.48 0.48 66 1011.1
20260902205133 31 39 0.0 6.4 0.00 0.48 0.48 66 1011.1
20260902205050 31 37 0.0 6.4 0.00 0.48 0.48 66 1011.0
20260902204959 31 38 0.0 6.4 0.00 0.48 0.48 67 1011.0
20260902204918 31 38 0.0 6.4 0.00 0.48 0.48 65 1011.0
20260902204523 31 38 0.0 6.4 0.00 0.48 0.48 64 1011.0
20260902204323 31 41 0.0 6.4 0.00 0.48 0.48 65 1011.0
20260902204202 31 350 0.0 6.4 0.00 0.48 0.48 65 1011.0
20260902204121 31 42 0.0 6.4 0.00 0.48 0.48 65 1011.0
20260902204006 31 68 0.0 6.4 0.00 0.48 0.48 64 1011.1
20260902203950 31 44 0.0 6.4 0.00 0.48 0.48 64 1011.0
20260902203918 31 45 0.0 6.4 0.00 0.48 0.48 64 1011.1
20260902203618 31 73 0.0 6.4 0.00 0.48 0.48 64 1011.0
20260902203419 31 31 0.0 6.4 0.00 0.48 0.48 70 1011.0
20260902203203 31 31 0.0 6.4 0.00 0.48 0.48 67 1011.0
20260902203119 31 27 0.0 6.4 0.00 0.48 0.48 68 1011.0
20260902202915 31 41 0.0 6.4 0.00 0.48 0.48 68 1011.0
20260902202702 30 52 0.0 8.0 0.00 0.48 0.48 69 1011.1
20260902202513 31 52 0.0 9.7 0.00 0.48 0.48 67 1011.0
20260902202313 31 55 0.0 9.7 0.00 0.48 0.48 65 1011.1
20260902202211 31 76 0.0 9.7 0.00 0.48 0.48 68 1011.1
20260902202204 31 58 0.0 9.7 0.00 0.48 0.48 66 1011.1
20260902202016 31 45 0.0 9.7 0.00 0.48 0.48 66 1011.1
20260902201711 31 38 0.0 9.7 0.00 0.48 0.48 68 1011.1
20260902201646 31 38 0.0 9.7 0.00 0.48 0.48 68 1011.1
20260902201511 30 48 0.0 4.8 0.00 0.48 0.48 69 1011.1
20260902201312 30 49 0.0 4.8 0.00 0.48 0.48 65 1011.1
20260902201150 30 49 0.0 4.8 0.00 0.48 0.48 67 1011.1
20260902201110 30 49 0.0 4.8 0.00 0.48 0.48 65 1011.4
20260902200909 30 56 0.0 8.0 0.00 0.48 0.48 67 1011.4
20260902200806 30 38 0.0 8.0 0.00 0.48 0.48 68 1011.2
20260902200648 30 37 0.0 8.0 0.00 0.48 0.48 72 1011.2
20260902200609 30 37 0.0 8.0 0.00 0.48 0.48 66 1011.4
20260902200310 30 37 0.0 8.0 0.00 0.48 0.48 67 1011.4
20260902200148 30 38 0.0 8.0 0.00 0.48 0.48 65 1011.4
20260902200108 31 59 0.0 8.0 0.00 0.48 0.48 65 1011.4
20260902195909 31 34 0.0 8.0 0.00 0.48 0.48 69 1011.5
20260902195704 30 59 0.0 8.0 0.00 0.48 0.48 68 1011.6
20260902195648 30 61 0.0 8.0 0.00 0.48 0.48 68 1011.6
20260902195602 30 28 0.0 6.4 0.00 0.48 0.48 71 1011.6
20260902195306 30 49 0.0 6.4 0.00 0.48 0.48 71 1011.6
20260902195202 30 49 0.0 6.4 0.00 0.48 0.48 71 1011.7
20260902195148 30 49 0.0 6.4 0.00 0.48 0.48 72 1011.6
20260902194952 30 51 0.0 6.4 0.00 0.48 0.48 69 1011.8
20260902194939 30 51 0.0 6.4 0.00 0.48 0.48 67 1011.7
20260902194903 30 49 0.0 6.4 0.00 0.48 0.48 69 1011.7
20260902194504 30 52 0.0 6.4 0.00 0.48 0.48 66 1011.8
20260902194304 30 250 0.0 4.8 0.00 0.48 0.48 71 1011.8
20260902194203 30 250 0.0 4.8 0.00 0.48 0.48 71 1011.7
20260902194146 30 251 0.0 4.8 0.00 0.48 0.48 66 1011.7
20260902193905 30 189 0.0 4.8 0.00 0.48 0.48 68 1011.8
20260902193801 30 192 0.0 6.4 0.00 0.48 0.48 67 1011.8
20260902193645 30 192 0.0 6.4 0.00 0.48 0.48 67 1011.9
20260902193502 30 192 0.0 6.4 0.00 0.48 0.48 68 1012.0
20260902193304 30 192 0.0 6.4 0.00 0.48 0.48 66 1011.9
20260902193147 30 41 0.0 6.4 0.00 0.48 0.48 69 1012.0
20260902193102 30 39 0.0 6.4 0.00 0.48 0.48 68 1011.9
20260902192902 30 41 0.0 6.4 0.00 0.48 0.48 67 1011.9
20260902192800 30 41 0.0 6.4 0.00 0.48 0.48 65 1011.9
20260902192645 30 58 0.0 6.4 0.00 0.48 0.48 66 1011.9
20260902192502 30 59 0.0 6.4 0.00 0.48 0.48 69 1011.9
20260902192306 30 59 0.0 4.8 0.00 0.48 0.48 70 1011.9
20260902192145 30 138 0.0 4.8 0.00 0.48 0.48 66 1012.0
20260902192101 30 39 0.0 4.8 0.00 0.48 0.48 66 1012.0
20260902191958 30 47 0.0 4.8 0.00 0.48 0.48 70 1011.9
20260902191657 29 180 0.0 6.4 0.00 0.48 0.48 70 1011.9
20260902191645 29 179 0.0 6.4 0.00 0.48 0.48 70 1011.9
20260902191455 29 180 0.0 6.4 0.00 0.48 0.48 70 1011.9
20260902191359 28 179 0.0 6.4 0.00 0.48 0.48 71 1011.8
20260902191145 28 182 0.0 6.4 0.00 0.48 0.48 70 1011.9
20260902191054 28 180 0.0 6.4 0.00 0.48 0.48 71 1011.9
20260902190854 28 179 0.0 6.4 0.00 0.48 0.48 70 1011.9
20260902190654 28 179 0.0 6.4 0.00 0.48 0.48 68 1011.9
20260902190645 28 178 0.0 6.4 0.00 0.48 0.48 68 1011.9
20260902190555 29 179 0.0 6.4 0.00 0.48 0.48 68 1012.0
20260902190252 29 117 0.0 8.0 0.00 0.48 0.48 69 1011.9
20260902190146 29 117 0.0 9.7 0.00 0.48 0.48 68 1011.9
20260902190052 29 169 0.0 9.7 0.00 0.48 0.48 66 1011.9
20260902185952 29 38 0.0 9.7 0.00 0.48 0.48 70 1011.9
20260902185654 29 38 0.0 9.7 0.00 0.48 0.48 70 1011.9
20260902185645 29 39 0.0 9.7 0.00 0.48 0.48 70 1011.9
20260902185451 29 37 0.0 9.7 0.00 0.48 0.48 71 1012.0
20260902185248 29 10 0.0 8.0 0.00 0.48 0.48 74 1011.8
20260902185152 29 38 0.0 8.0 0.00 0.48 0.48 71 1011.9
20260902185145 29 4 0.0 8.0 0.00 0.48 0.48 68 1011.9
20260902184847 29 58 0.0 8.0 0.00 0.48 0.48 71 1012.0
20260902184645 29 58 0.0 8.0 0.00 0.48 0.48 70 1012.1
20260902184550 28 148 0.0 6.4 0.00 0.48 0.48 71 1012.1
20260902184251 28 148 0.0 6.4 0.00 0.48 0.48 71 1012.2
20260902184148 28 148 0.0 6.4 0.00 0.48 0.48 71 1012.2
20260902184048 28 148 0.0 6.4 0.00 0.48 0.48 69 1012.1
20260902183849 29 148 0.0 6.4 0.00 0.48 0.48 70 1012.1
20260902183649 28 128 0.0 4.8 0.00 0.48 0.48 69 1012.1
20260902183447 29 125 0.0 4.8 0.00 0.48 0.48 72 1012.2
20260902183248 29 90 0.0 4.8 0.00 0.48 0.48 71 1012.1
20260902183148 28 69 0.0 4.8 0.00 0.48 0.48 69 1012.1
20260902183053 28 59 0.0 6.4 0.00 0.48 0.48 70 1012.2
20260902183047 29 78 0.0 4.8 0.00 0.48 0.48 70 1012.1
20260902182648 28 41 0.0 6.4 0.00 0.48 0.48 71 1012.1
20260902182450 28 159 0.0 6.4 0.00 0.48 0.48 70 1012.1
20260902182443 29 151 0.0 6.4 0.00 0.48 0.48 70 1012.2
20260902182413 29 158 0.0 6.4 0.00 0.48 0.48 67 1012.2
20260902182046 29 41 0.0 6.4 0.00 0.48 0.48 67 1012.2
20260902181847 29 35 0.0 4.8 0.00 0.48 0.48 71 1012.1
20260902181659 28 38 0.0 8.0 0.00 0.48 0.48 71 1012.2
20260902181648 29 38 0.0 4.8 0.00 0.48 0.48 74 1012.2
20260902181249 28 37 0.0 8.0 0.00 0.48 0.48 71 1012.2
20260902181148 28 38 0.0 8.0 0.00 0.48 0.48 69 1012.2
20260902181046 28 38 0.0 8.0 0.00 0.48 0.48 69 1012.1
20260902180846 28 52 0.0 8.0 0.00 0.48 0.48 70 1012.2
20260902180648 28 51 0.0 8.0 0.00 0.48 0.48 73 1012.2
20260902180447 28 39 0.0 9.7 0.00 0.48 0.48 70 1012.3
20260902180249 28 39 0.0 9.7 0.00 0.48 0.48 73 1012.4
20260902180148 28 42 0.0 9.7 0.00 0.48 0.48 71 1012.4
20260902180049 28 87 0.0 9.7 0.00 0.48 0.48 72 1012.4
20260902175947 28 34 0.0 9.7 0.00 0.48 0.48 73 1012.5
20260902175752 28 56 0.0 9.7 0.00 0.48 0.48 72 1012.5
20260902175649 28 56 0.0 9.7 0.00 0.48 0.48 72 1012.5
20260902175447 28 11 0.0 6.4 0.00 0.48 0.48 71 1012.4
20260902175248 28 147 0.0 6.4 0.00 0.48 0.48 75 1012.5
20260902175155 28 145 0.0 6.4 0.00 0.48 0.48 72 1012.5
20260902175048 28 147 0.0 6.4 0.00 0.48 0.48 74 1012.6
20260902174846 28 34 0.0 9.7 0.00 0.48 0.48 72 1012.5
20260902174651 28 34 0.0 9.7 0.00 0.48 0.48 71 1012.5
20260902174543 28 27 0.0 9.7 0.00 0.48 0.48 74 1012.4
20260902174347 28 37 0.0 9.7 0.00 0.48 0.48 73 1012.5
20260902174148 28 37 0.0 9.7 0.00 0.48 0.48 72 1012.4
20260902174048 28 48 0.0 9.7 0.00 0.48 0.48 74 1012.5
20260902173847 27 158 0.0 4.8 0.00 0.48 0.48 74 1012.6
20260902173650 27 158 0.0 8.0 0.00 0.48 0.48 70 1012.7
20260902173510 27 37 0.0 8.0 0.00 0.48 0.48 77 1012.8
20260902173501 28 42 0.0 8.0 0.00 0.48 0.48 72 1012.8
20260902173423 28 37 0.0 8.0 0.00 0.48 0.48 77 1012.8
20260902173140 27 37 0.0 8.0 0.00 0.48 0.48 73 1012.8
20260902172942 27 37 0.0 8.0 0.00 0.48 0.48 74 1012.8
20260902172640 27 51 0.0 8.0 0.00 0.48 0.48 72 1012.9
20260902172453 27 38 0.0 8.0 0.00 0.48 0.48 74 1013.0
20260902172444 27 51 0.0 8.0 0.00 0.48 0.48 73 1012.9
20260902172412 27 51 0.0 8.0 0.00 0.48 0.48 73 1013.0
20260902172041 27 62 0.0 8.0 0.00 0.48 0.48 75 1013.1
20260902171939 27 56 0.0 0.0 0.00 0.48 0.48 75 1013.0
20260902171648 27 62 0.0 0.0 0.00 0.48 0.48 75 1013.0
20260902171636 27 63 0.0 0.0 0.00 0.48 0.48 75 1013.1
20260902171539 27 199 0.0 0.0 0.00 0.48 0.48 79 1013.1
20260902171448 27 199 0.0 0.0 0.00 0.48 0.48 75 1013.2
20260902171411 27 199 0.0 0.0 0.00 0.48 0.48 77 1013.2
20260902171035 27 199 0.0 0.0 0.00 0.48 0.48 76 1013.2
20260902170834 26 200 0.0 0.0 0.00 0.48 0.48 77 1013.3
20260902170654 26 199 0.0 0.0 0.00 0.48 0.48 76 1013.3
20260902170636 26 199 0.0 0.0 0.00 0.48 0.48 76 1013.4
20260902170557 26 200 0.0 0.0 0.00 0.48 0.48 76 1013.3
20260902170509 26 200 0.0 0.0 0.00 0.48 0.48 77 1013.4
20260902170420 26 200 0.0 0.0 0.00 0.48 0.48 77 1013.4
20260902170107 26 200 0.0 1.6 0.00 0.48 0.48 78 1013.6
20260902165809 26 200 0.0 1.6 0.00 0.48 0.48 76 1013.6
20260902165647 26 200 0.0 1.6 0.00 0.48 0.48 76 1013.5
20260902165609 26 202 0.0 1.6 0.00 0.48 0.48 79 1013.5
20260902165449 26 200 0.0 1.6 0.00 0.48 0.48 76 1013.5
20260902165437 26 200 0.0 1.6 0.00 0.48 0.48 79 1013.5
20260902165403 26 200 0.0 1.6 0.00 0.48 0.48 76 1013.5
20260902165112 26 195 0.0 0.0 0.00 0.48 0.48 78 1013.4
20260902164803 25 193 0.0 0.0 0.00 0.48 0.48 77 1013.4
20260902164700 25 192 0.0 0.0 0.00 0.48 0.48 77 1013.3
20260902164644 25 193 0.0 0.0 0.00 0.48 0.48 78 1013.3
20260902164442 26 42 0.0 0.0 0.00 0.48 0.48 77 1013.3
20260902164429 26 197 0.0 0.0 0.00 0.48 0.48 77 1013.5
20260902164357 26 42 0.0 0.0 0.00 0.48 0.48 77 1013.3
20260902163959 26 41 0.0 0.0 0.00 0.48 0.48 76 1013.2
20260902163759 26 21 0.0 0.0 0.00 0.48 0.48 76 1013.2
20260902163647 26 17 0.0 0.0 0.00 0.48 0.48 78 1013.2
20260902163557 26 16 0.0 0.0 0.00 0.48 0.48 78 1013.2
20260902163444 26 41 0.0 0.0 0.00 0.48 0.48 79 1013.1
20260902163430 26 16 0.0 0.0 0.00 0.48 0.48 80 1013.2
20260902163359 26 42 0.0 0.0 0.00 0.48 0.48 79 1013.1
20260902162957 26 38 0.0 0.0 0.00 0.48 0.48 80 1013.1
20260902162857 25 45 0.0 0.0 0.00 0.48 0.48 79 1013.1
20260902162657 25 54 0.0 0.0 0.00 0.48 0.48 79 1013.1
20260902162645 25 47 0.0 0.0 0.00 0.48 0.48 79 1013.1
20260902162357 25 21 0.0 0.0 0.00 0.48 0.48 78 1013.1
20260902162155 25 42 0.0 0.0 0.00 0.48 0.48 80 1013.1
20260902162136 26 42 0.0 0.0 0.00 0.48 0.48 80 1013.1
20260902161954 25 38 0.0 0.0 0.00 0.48 0.48 79 1013.1
20260902161755 25 37 0.0 0.0 0.00 0.48 0.48 79 1013.1
20260902161636 25 38 0.0 0.0 0.00 0.48 0.48 78 1013.1
20260902161551 25 39 0.0 0.0 0.00 0.48 0.48 79 1013.1
20260902161449 25 38 0.0 0.0 0.00 0.48 0.48 80 1013.0
20260902161259 25 37 0.0 0.0 0.00 0.48 0.48 79 1013.0
20260902161133 25 34 0.0 0.0 0.00 0.48 0.48 79 1013.1
20260902160950 25 39 0.0 0.0 0.00 0.48 0.48 80 1013.1
20260902160749 25 38 0.0 0.0 0.00 0.48 0.48 80 1013.1
20260902160634 25 71 0.0 0.0 0.00 0.48 0.48 79 1013.1
20260902160549 25 80 0.0 0.0 0.00 0.48 0.48 80 1013.1
20260902160348 25 1 0.0 3.2 0.00 0.48 0.48 78 1013.0
20260902160148 25 200 0.0 6.4 0.00 0.48 0.48 77 1012.9
20260902160132 25 199 0.0 6.4 0.00 0.48 0.48 77 1013.0
20260902160049 25 199 0.0 6.4 0.00 0.48 0.48 77 1013.0
20260902155747 26 168 0.0 8.0 0.00 0.48 0.48 75 1013.0
20260902155631 26 113 0.0 8.0 0.00 0.48 0.48 76 1013.0
20260902155548 26 114 0.0 8.0 0.00 0.48 0.48 77 1013.0
20260902155346 26 149 0.0 8.0 0.00 0.48 0.48 76 1013.0
20260902155242 26 42 0.0 8.0 0.00 0.48 0.48 76 1013.0
20260902155131 26 42 0.0 8.0 0.00 0.48 0.48 78 1012.9
20260902154945 26 59 0.0 8.0 0.00 0.48 0.48 79 1012.9
20260902154844 25 16 0.0 0.0 0.00 0.48 0.48 77 1012.8
20260902154633 25 30 0.0 0.0 0.00 0.48 0.48 78 1012.7
20260902154544 25 28 0.0 0.0 0.00 0.48 0.48 80 1012.7
20260902154346 25 18 0.0 0.0 0.00 0.48 0.48 79 1012.6
20260902154144 25 1 0.0 0.0 0.00 0.48 0.48 79 1012.7
20260902154132 25 0 0.0 0.0 0.00 0.48 0.48 79 1012.7
20260902153956 25 56 0.0 0.0 0.00 0.48 0.48 79 1012.7
20260902153945 25 38 0.0 0.0 0.00 0.48 0.48 80 1012.7
20260902153917 25 63 0.0 0.0 0.00 0.48 0.48 78 1012.7
20260902153546 25 44 0.0 0.0 0.00 0.48 0.48 78 1012.7
20260902153444 25 62 0.0 0.0 0.00 0.48 0.48 79 1012.7
20260902153130 25 39 0.0 0.0 0.00 0.48 0.48 80 1012.7
20260902152945 25 38 0.0 0.0 0.00 0.48 0.48 79 1012.7
20260902152744 25 78 0.0 0.0 0.00 0.48 0.48 78 1012.8
20260902152629 25 69 0.0 0.0 0.00 0.48 0.48 78 1012.8
20260902152545 25 141 0.0 0.0 0.00 0.48 0.48 80 1012.8
20260902152442 25 51 0.0 0.0 0.00 0.48 0.48 82 1012.8
20260902152147 25 51 0.0 0.0 0.00 0.48 0.48 81 1012.7
20260902152129 25 52 0.0 0.0 0.00 0.48 0.48 82 1012.7
20260902152047 25 28 0.0 0.0 0.00 0.48 0.48 82 1012.8
20260902151747 24 24 0.0 0.0 0.00 0.48 0.48 82 1012.6
20260902151628 24 42 0.0 0.0 0.00 0.48 0.48 82 1012.6
20260902151533 24 51 0.0 0.0 0.00 0.48 0.48 83 1012.6
20260902151336 24 32 0.0 0.0 0.00 0.48 0.48 84 1012.6
20260902151236 24 35 0.0 0.0 0.00 0.48 0.48 81 1012.5
20260902151128 24 35 0.0 0.0 0.00 0.48 0.48 81 1012.5
20260902150934 24 48 0.0 0.0 0.00 0.48 0.48 81 1012.6
20260902150833 24 23 0.0 0.0 0.00 0.48 0.48 82 1012.5
20260902150632 24 39 0.0 0.0 0.00 0.48 0.48 83 1012.6
20260902150533 24 37 0.0 0.0 0.00 0.48 0.48 83 1012.6
20260902150330 24 48 0.0 0.0 0.00 0.48 0.48 83 1012.6
20260902150126 23 61 0.0 0.0 0.00 0.48 0.48 83 1012.6
20260902145929 23 37 0.0 0.0 0.00 0.48 0.48 82 1012.6
20260902145825 23 34 0.0 0.0 0.00 0.48 0.48 83 1012.7
20260902145628 23 35 0.0 0.0 0.00 0.48 0.48 83 1012.7
20260902145528 23 49 0.0 0.0 0.00 0.48 0.48 83 1012.7
20260902145507 23 25 0.0 0.0 0.00 0.48 0.48 82 1012.6
20260902145420 23 151 0.0 0.0 0.00 0.48 0.48 82 1012.7
20260902145339 23 151 0.0 0.0 0.00 0.48 0.48 82 1012.7
20260902144924 23 148 0.0 0.0 0.00 0.48 0.48 82 1012.8
20260902144727 23 149 0.0 0.0 0.00 0.48 0.48 82 1012.7
20260902144623 23 149 0.0 0.0 0.00 0.48 0.48 82 1012.8
20260902144523 23 151 0.0 0.0 0.00 0.48 0.48 83 1012.6
20260902144503 23 47 0.0 0.0 0.00 0.48 0.48 84 1012.7
20260902144414 23 56 0.0 0.0 0.00 0.48 0.48 85 1012.5
20260902144335 23 56 0.0 0.0 0.00 0.48 0.48 85 1012.5
20260902143907 23 54 0.0 0.0 0.00 0.48 0.48 85 1012.6
20260902143706 23 44 0.0 0.0 0.00 0.48 0.48 85 1012.6
20260902143623 23 55 0.0 0.0 0.00 0.48 0.48 85 1012.7
20260902143616 23 44 0.0 0.0 0.00 0.48 0.48 85 1012.6
20260902143357 22 52 0.0 0.0 0.00 0.48 0.48 86 1012.7
20260902143344 23 56 0.0 0.0 0.00 0.48 0.48 85 1012.7
20260902143105 22 52 0.0 0.0 0.00 0.48 0.48 86 1012.7
20260902142858 22 38 0.0 0.0 0.00 0.48 0.48 86 1012.7
20260902142756 22 38 0.0 0.0 0.00 0.48 0.48 86 1012.8
20260902142606 22 35 0.0 0.0 0.00 0.48 0.48 87 1012.8
20260902142454 22 47 0.0 0.0 0.00 0.48 0.48 87 1012.8
20260902142253 22 25 0.0 0.0 0.00 0.48 0.48 87 1012.8
20260902142145 22 24 0.0 0.0 0.00 0.48 0.48 87 1012.8
20260902142104 22 25 0.0 0.0 0.00 0.48 0.48 87 1012.8
20260902141847 22 25 0.0 0.0 0.00 0.48 0.48 88 1012.9
20260902141648 22 34 0.0 0.0 0.00 0.48 0.48 88 1012.9
20260902141604 22 32 0.0 0.0 0.00 0.48 0.48 89 1012.9
20260902141448 22 31 0.0 0.0 0.00 0.48 0.48 89 1013.0
20260902141348 22 32 0.0 0.0 0.00 0.48 0.48 90 1013.0
20260902141104 22 18 0.0 0.0 0.00 0.48 0.48 90 1013.0
20260902141047 22 20 0.0 0.0 0.00 0.48 0.48 90 1013.0
20260902140845 22 17 0.0 0.0 0.00 0.48 0.48 90 1013.0
20260902140741 21 6 0.0 0.0 0.00 0.48 0.48 91 1013.0
20260902140605 21 24 0.0 0.0 0.00 0.48 0.48 91 1012.9
20260902140443 21 34 0.0 0.0 0.00 0.48 0.48 92 1013.0
20260902140233 21 11 0.0 0.0 0.00 0.48 0.48 92 1013.0
20260902140108 21 10 0.0 0.0 0.00 0.48 0.48 92 1013.0
20260902140033 21 11 0.0 0.0 0.00 0.48 0.48 92 1013.0
20260902135930 21 11 0.0 0.0 0.00 0.48 0.48 92 1013.0
20260902135632 21 10 0.0 0.0 0.00 0.48 0.48 92 1013.0
20260902135601 21 10 0.0 0.0 0.00 0.48 0.48 92 1013.0
20260902135431 21 4 0.0 0.0 0.00 0.48 0.48 93 1012.9
20260902135328 21 35 0.0 0.0 0.00 0.48 0.48 93 1012.9
20260902135101 21 45 0.0 0.0 0.00 0.48 0.48 93 1012.9
20260902135030 21 0 0.0 0.0 0.00 0.48 0.48 93 1013.0
20260902134928 21 0 0.0 0.0 0.00 0.48 0.48 94 1012.9
20260902134631 21 37 0.0 0.0 0.00 0.48 0.48 95 1012.8
20260902134600 21 38 0.0 0.0 0.00 0.48 0.48 95 1012.8
20260902134433 21 34 0.0 0.0 0.00 0.48 0.48 95 1012.8
20260902134236 21 1 0.0 0.0 0.00 0.48 0.48 96 1012.8
20260902134100 21 23 0.0 0.0 0.00 0.48 0.48 96 1012.8
20260902134015 21 48 0.0 0.0 0.00 0.48 0.48 97 1012.8
20260902133944 20 47 0.0 0.0 0.00 0.48 0.48 96 1012.9
20260902133851 20 38 0.0 0.0 0.00 0.48 0.48 97 1012.9
20260902133813 20 38 0.0 0.0 0.00 0.48 0.48 97 1012.9
20260902133502 20 30 0.0 0.0 0.00 0.48 0.48 97 1012.9
20260902133202 20 20 0.0 0.0 0.00 0.48 0.48 96 1012.9
20260902133101 20 20 0.0 0.0 0.00 0.48 0.48 96 1012.9
20260902133002 20 20 0.0 0.0 0.00 0.48 0.48 96 1012.9
20260902132806 20 18 0.0 0.0 0.00 0.48 0.48 97 1012.9
20260902132608 20 20 0.0 0.0 0.00 0.48 0.48 97 1012.9
20260902132559 20 18 0.0 0.0 0.00 0.48 0.48 97 1012.9
20260902132441 20 17 0.0 0.0 0.00 0.48 0.48 97 1012.9
20260902132147 20 18 0.0 0.0 0.00 0.48 0.48 97 1012.8
20260902132102 20 20 0.0 0.0 0.00 0.48 0.48 97 1012.8
20260902132041 20 20 0.0 0.0 0.00 0.48 0.48 97 1012.8
20260902131747 20 18 0.0 0.0 0.00 0.48 0.48 97 1012.8
20260902131603 20 18 0.0 0.0 0.00 0.48 0.48 97 1012.7
20260902131531 20 18 0.0 0.0 0.00 0.48 0.48 97 1012.8
20260902131429 20 18 0.0 0.0 0.00 0.48 0.48 97 1012.8
20260902131131 19 17 0.0 0.0 0.00 0.48 0.48 97 1012.8
20260902131100 19 20 0.0 0.0 0.00 0.48 0.48 97 1012.8
20260902131036 19 18 0.0 0.0 0.00 0.48 0.48 97 1012.9
20260902130734 19 17 0.0 0.0 0.00 0.48 0.48 97 1013.0
20260902130601 19 17 0.0 0.0 0.00 0.48 0.48 97 1012.9
20260902130503 19 18 0.0 0.0 0.00 0.48 0.48 97 1013.0
20260902130303 18 18 0.0 0.0 0.00 0.48 0.48 97 1012.9
20260902130002 18 18 0.0 0.0 0.00 0.48 0.48 97 1012.9
20260902125900 18 17 0.0 0.0 0.00 0.48 0.48 97 1012.9
20260902125855 18 17 0.0 0.0 0.00 0.48 0.48 97 1012.9
20260902125829 18 17 0.0 0.0 0.00 0.48 0.48 97 1013.0
20260902125305 18 17 0.0 0.0 0.00 0.48 0.48 97 1012.8
20260902125101 18 17 0.0 0.0 0.00 0.48 0.48 97 1012.7
20260902124904 18 18 0.0 1.6 0.00 0.48 0.48 97 1012.8
20260902124647 18 17 0.0 4.8 0.00 0.48 0.48 97 1012.9
20260902124602 18 17 0.0 4.8 0.00 0.48 0.48 97 1012.9
20260902124546 18 17 0.0 4.8 0.00 0.48 0.48 97 1012.9
20260902124245 18 17 0.0 4.8 0.00 0.48 0.48 97 1012.8
20260902124141 18 17 0.0 4.8 0.00 0.48 0.48 97 1012.7
20260902124103 18 17 0.0 4.8 0.00 0.48 0.48 97 1012.7
20260902123845 18 18 0.0 4.8 0.00 0.48 0.48 97 1012.8
20260902123644 18 17 0.0 3.2 0.00 0.48 0.48 97 1012.7
20260902123603 18 17 0.0 3.2 0.00 0.48 0.48 97 1012.6
20260902123448 18 14 0.0 0.0 0.00 0.48 0.48 97 1012.6
20260902123230 18 18 0.0 0.0 0.00 0.48 0.48 97 1012.6
20260902123105 18 34 0.0 0.0 0.00 0.48 0.48 97 1012.6
20260902123030 18 32 0.0 0.0 0.00 0.48 0.48 97 1012.6
20260902122830 18 32 0.0 1.6 0.00 0.48 0.48 97 1012.6
20260902122732 18 6 0.0 1.6 0.00 0.48 0.48 97 1012.5
20260902122604 18 6 0.0 1.6 0.00 0.48 0.48 97 1012.5
20260902122434 18 6 0.0 3.2 0.00 0.48 0.48 97 1012.5
20260902122321 18 6 0.0 3.2 0.00 0.48 0.48 97 1012.5
20260902122101 18 6 0.0 3.2 0.00 0.48 0.48 97 1012.5
20260902122025 18 6 0.0 3.2 0.00 0.48 0.48 97 1012.6
20260902121852 18 6 0.0 3.2 0.00 0.48 0.48 97 1012.6
20260902121843 18 6 0.0 3.2 0.00 0.48 0.48 97 1012.6
20260902121816 18 6 0.0 3.2 0.00 0.48 0.48 97 1012.6
20260902121423 18 6 0.0 3.2 0.00 0.48 0.48 97 1012.6
20260902121323 18 6 0.0 3.2 0.00 0.48 0.48 97 1012.6
20260902121101 18 6 0.0 3.2 0.00 0.48 0.48 97 1012.5
20260902121020 18 6 0.0 3.2 0.00 0.48 0.48 97 1012.5
20260902120917 18 6 0.0 3.2 0.00 0.48 0.48 97 1012.5
20260902120619 18 6 0.0 3.2 0.00 0.48 0.48 97 1012.5
20260902120558 18 6 0.0 3.2 0.00 0.48 0.48 97 1012.5
20260902120417 18 6 0.0 3.2 0.00 0.48 0.48 97 1012.6
20260902120218 18 6 0.0 3.2 0.00 0.48 0.48 97 1012.7
20260902120101 18 6 0.0 4.8 0.00 0.48 0.48 97 1012.8
20260902120014 18 7 0.0 4.8 0.00 0.48 0.48 97 1012.8
20260902115915 18 4 0.0 4.8 0.00 0.48 0.48 97 1012.7
20260902115607 18 49 0.0 4.8 0.00 0.48 0.48 97 1012.6
20260902115555 18 49 0.0 4.8 0.00 0.48 0.48 97 1012.6
20260902115410 18 49 0.0 4.8 0.00 0.48 0.48 97 1012.5
20260902115204 18 44 0.0 4.8 0.00 0.48 0.48 97 1012.6
20260902115057 18 37 0.0 4.8 0.00 0.48 0.48 96 1012.6
20260902115001 18 38 0.0 4.8 0.00 0.48 0.48 96 1012.8
20260902114805 18 37 0.0 4.8 0.00 0.48 0.48 96 1012.7
20260902114759 18 65 0.0 3.2 0.00 0.48 0.48 96 1012.7
20260902114554 18 65 0.0 3.2 0.00 0.48 0.48 96 1012.7
20260902114402 18 32 0.0 3.2 0.00 0.48 0.48 96 1012.8
20260902114203 18 7 0.0 1.6 0.00 0.48 0.48 96 1012.9
20260902114055 18 7 0.0 1.6 0.00 0.48 0.48 96 1012.8
20260902113957 18 7 0.0 1.6 0.03 0.48 0.48 96 1012.8
20260902113755 18 27 0.0 1.6 0.03 0.48 0.48 96 1012.8
20260902113554 18 27 0.0 3.2 0.10 0.48 0.48 96 1012.8
20260902113358 18 25 0.0 3.2 0.20 0.48 0.48 96 1012.9
20260902113353 18 27 0.0 4.8 0.36 0.48 0.48 96 1012.9
20260902113054 18 27 0.0 4.8 0.36 0.48 0.48 96 1012.9
20260902112952 18 27 0.0 4.8 0.36 0.48 0.48 96 1012.8
20260902112745 18 27 0.0 6.4 0.36 0.48 0.48 96 1012.8
20260902112554 18 25 0.0 6.4 0.36 0.48 0.48 96 1012.7
20260902112547 18 27 0.0 6.4 0.36 0.48 0.48 96 1012.7
20260902112349 18 86 0.0 6.4 0.36 0.48 0.48 96 1012.8
20260902112141 18 48 0.0 6.4 0.36 0.48 0.48 96 1012.8
20260902112051 18 49 0.0 6.4 0.36 0.48 0.48 96 1012.8
20260902111948 18 21 0.0 4.8 0.36 0.48 0.48 96 1013.0
20260902111942 18 51 0.0 6.4 0.36 0.48 0.48 96 1013.0
20260902111540 19 16 0.0 4.8 0.36 0.48 0.48 96 1013.0
20260902111445 19 13 0.0 4.8 0.36 0.48 0.48 97 1013.0
20260902111141 19 13 0.0 4.8 0.36 0.48 0.48 97 1013.2
20260902111052 19 13 0.0 4.8 0.36 0.48 0.48 96 1013.2
20260902110939 19 14 0.0 4.8 0.36 0.48 0.48 96 1013.6
20260902110739 19 13 0.0 3.2 0.36 0.48 0.48 96 1013.8
20260902110538 19 13 0.0 3.2 0.36 0.48 0.48 96 1013.8
20260902110439 19 14 0.0 3.2 0.36 0.48 0.48 97 1013.8
20260902110138 19 13 0.0 4.8 0.36 0.48 0.48 97 1013.9
20260902110036 19 13 0.0 4.8 0.36 0.13 0.48 97 1013.9
20260902105736 19 13 0.0 4.8 0.36 0.13 0.48 96 1013.8
20260902105549 19 13 0.0 4.8 0.36 0.13 0.48 96 1013.7
20260902105536 19 13 0.0 4.8 0.36 0.13 0.48 96 1013.6
20260902105335 19 13 0.0 4.8 0.36 0.13 0.48 96 1013.6
20260902105135 19 185 0.0 6.4 0.36 0.13 0.48 96 1013.4
20260902105049 19 185 0.0 6.4 0.36 0.13 0.48 96 1013.4
20260902105034 19 185 0.0 6.4 0.36 0.13 0.48 96 1013.4
20260902104731 19 185 0.0 6.4 0.36 0.13 0.48 96 1013.1
20260902104626 19 193 0.0 6.4 0.36 0.13 0.48 96 1013.0
20260902104549 19 193 0.0 6.4 0.36 0.13 0.48 96 1013.0
20260902104329 19 195 0.0 6.4 0.36 0.13 0.48 96 1012.9
20260902104129 19 175 0.0 4.8 0.36 0.13 0.48 96 1012.8
20260902104049 19 176 0.0 4.8 0.36 0.13 0.46 96 1012.8
20260902103929 19 176 0.0 4.8 0.33 0.13 0.46 96 1012.9
20260902103731 19 196 0.0 6.4 0.33 0.13 0.43 96 1013.0
20260902103547 19 214 0.0 6.4 0.25 0.13 0.36 96 1013.2
20260902103529 19 216 0.0 6.4 0.25 0.13 0.36 96 1013.4
20260902103328 19 221 0.0 6.4 0.10 0.13 0.18 96 1014.1
20260902103230 19 197 0.0 9.7 0.00 0.13 0.13 96 1013.7
20260902103048 19 199 0.0 9.7 0.00 0.13 0.13 96 1013.7
20260902102928 19 199 0.0 9.7 0.00 0.13 0.13 96 1013.8
20260902102727 18 188 0.0 9.7 0.00 0.13 0.13 96 1013.8
20260902102528 18 189 0.0 9.7 0.00 0.13 0.13 96 1013.9
20260902102326 18 188 0.0 9.7 0.00 0.13 0.13 96 1013.8
20260902102225 18 200 0.0 6.4 0.00 0.13 0.13 96 1013.8
20260902102048 18 200 0.0 6.4 0.00 0.13 0.13 96 1013.8
20260902101927 18 200 0.0 6.4 0.00 0.13 0.13 96 1013.8
20260902101823 18 207 0.0 4.8 0.00 0.13 0.13 96 1013.8
20260902101522 18 206 0.0 4.8 0.00 0.13 0.13 96 1013.9
20260902101322 18 207 0.0 4.8 0.00 0.13 0.13 96 1013.9
20260902101123 18 206 0.0 4.8 0.00 0.13 0.13 96 1013.8
20260902101050 18 207 0.0 4.8 0.00 0.13 0.13 96 1013.8
20260902100915 18 207 0.0 4.8 0.00 0.13 0.13 96 1013.6
20260902100903 18 207 0.0 4.8 0.00 0.13 0.13 96 1013.7
20260902100825 18 206 0.0 6.4 0.00 0.13 0.13 96 1013.6
20260902100447 18 206 0.0 6.4 0.00 0.13 0.13 96 1013.5
20260902100352 18 206 0.0 6.4 0.00 0.13 0.13 96 1013.6
20260902100105 18 207 0.0 6.4 0.00 0.13 0.13 96 1013.5
20260902095848 18 207 0.0 6.4 0.00 0.13 0.13 96 1013.6
20260902095839 18 206 0.0 6.4 0.00 0.13 0.13 96 1013.4
20260902095815 18 206 0.0 6.4 0.00 0.13 0.13 96 1013.5
20260902095453 18 152 0.0 4.8 0.00 0.13 0.13 95 1013.3
20260902095447 18 162 0.0 6.4 0.00 0.13 0.13 96 1013.3
20260902095049 18 154 0.0 4.8 0.00 0.13 0.13 95 1013.1
20260902094851 18 152 0.0 4.8 0.00 0.13 0.13 95 1013.1
20260902094841 18 148 0.0 4.8 0.00 0.13 0.13 95 1013.2
20260902094816 18 148 0.0 4.8 0.00 0.13 0.13 95 1013.2
20260902094448 18 148 0.0 4.8 0.00 0.13 0.13 95 1013.2
20260902094249 18 147 0.0 3.2 0.00 0.13 0.13 95 1013.1
20260902094150 18 147 0.0 3.2 0.00 0.13 0.13 95 1013.0
20260902094048 18 147 0.0 3.2 0.00 0.13 0.13 95 1013.0
20260902093947 18 147 0.0 3.2 0.00 0.13 0.13 95 1012.9
20260902093841 18 147 0.0 3.2 0.00 0.13 0.13 95 1012.8
20260902093815 18 147 0.0 3.2 0.00 0.13 0.13 95 1012.9
20260902093449 18 147 0.0 1.6 0.00 0.13 0.13 95 1012.6
20260902093353 18 147 0.0 3.2 0.00 0.13 0.13 95 1012.5
20260902093336 18 147 0.0 3.2 0.00 0.13 0.13 95 1012.6
20260902093301 18 147 0.0 3.2 0.00 0.13 0.13 95 1012.5
20260902092846 18 145 0.0 4.8 0.00 0.13 0.13 95 1012.5
20260902092747 18 144 0.0 4.8 0.00 0.13 0.13 95 1012.5
20260902092558 18 144 0.0 4.8 0.00 0.13 0.13 95 1012.5
20260902092547 18 144 0.0 4.8 0.00 0.13 0.13 95 1012.5
20260902092354 18 47 0.0 4.8 0.00 0.13 0.13 95 1012.4
20260902092338 18 141 0.0 4.8 0.00 0.13 0.13 95 1012.5
20260902092305 18 47 0.0 4.8 0.00 0.13 0.13 95 1012.4
20260902091849 18 32 0.0 4.8 0.00 0.13 0.13 95 1012.2
20260902091648 18 118 0.0 4.8 0.00 0.13 0.13 95 1012.2
20260902091547 18 118 0.0 4.8 0.00 0.13 0.13 95 1012.3
20260902091449 18 120 0.0 4.8 0.00 0.13 0.13 95 1012.4
20260902091439 18 161 0.0 6.4 0.00 0.13 0.13 95 1012.4
20260902091350 18 182 0.0 8.0 0.00 0.13 0.13 95 1012.5
20260902091303 18 182 0.0 8.0 0.00 0.13 0.13 95 1012.5
20260902090846 18 183 0.0 8.0 0.00 0.13 0.13 95 1012.4
20260902090646 18 183 0.0 9.7 0.00 0.13 0.13 95 1012.5
20260902090559 18 182 0.0 9.7 0.00 0.13 0.13 95 1012.6
20260902090548 18 183 0.0 9.7 0.00 0.13 0.13 95 1012.5
20260902090404 18 183 0.0 9.7 0.00 0.13 0.13 95 1012.7
20260902090348 18 145 0.0 9.7 0.00 0.13 0.13 95 1012.7
20260902090316 18 183 0.0 9.7 0.00 0.13 0.13 95 1012.7
20260902085846 18 165 0.0 9.7 0.00 0.13 0.13 96 1012.6
20260902085750 18 214 0.0 8.0 0.00 0.13 0.13 95 1012.6
20260902085549 18 214 0.0 8.0 0.00 0.13 0.13 95 1012.7
20260902085449 18 214 0.0 8.0 0.00 0.13 0.13 95 1012.8
20260902085247 18 162 0.0 8.0 0.00 0.13 0.13 95 1012.7
20260902085204 18 148 0.0 4.8 0.00 0.13 0.13 95 1012.4
20260902085053 18 148 0.0 4.8 0.00 0.13 0.13 95 1012.4
20260902084846 18 120 0.0 3.2 0.00 0.13 0.13 95 1012.0
20260902084647 18 118 0.0 3.2 0.00 0.13 0.13 95 1012.1
20260902084545 18 118 0.0 3.2 0.00 0.13 0.13 95 1012.0
20260902084447 18 120 0.0 3.2 0.00 0.13 0.13 95 1012.0
20260902084439 18 118 0.0 4.8 0.00 0.13 0.13 95 1012.1
20260902084349 18 120 0.0 4.8 0.00 0.13 0.13 95 1011.9
20260902084305 18 120 0.0 4.8 0.00 0.13 0.13 95 1011.9
20260902083848 18 178 0.0 6.4 0.00 0.13 0.13 95 1012.0
20260902083748 18 124 0.0 11.3 0.00 0.13 0.13 95 1012.0
20260902083545 18 113 0.0 11.3 0.00 0.13 0.13 95 1011.9
20260902083446 18 133 0.0 11.3 0.03 0.13 0.13 95 1011.7
20260902083351 18 63 0.0 11.3 0.03 0.13 0.13 95 1011.4
20260902083334 18 149 0.0 11.3 0.03 0.13 0.13 95 1011.5
20260902083301 18 63 0.0 11.3 0.03 0.13 0.13 95 1011.4
20260902082946 18 79 0.0 11.3 0.03 0.13 0.13 95 1011.1
20260902082647 18 0 0.0 6.4 0.03 0.13 0.13 95 1011.0
20260902082547 18 7 0.0 6.4 0.03 0.13 0.13 95 1011.0
20260902082446 18 51 0.0 6.4 0.03 0.13 0.13 95 1010.9
20260902082347 18 34 0.0 6.4 0.05 0.13 0.13 95 1011.2
20260902082332 18 17 0.0 6.4 0.03 0.13 0.13 95 1010.9
20260902082259 18 34 0.0 6.4 0.05 0.13 0.13 95 1011.2
20260902081946 18 39 0.0 6.4 0.05 0.13 0.13 95 1011.4
20260902081649 18 11 0.0 6.4 0.05 0.13 0.13 95 1011.6
20260902081554 18 25 0.0 6.4 0.05 0.13 0.13 95 1011.7
20260902081545 18 24 0.0 6.4 0.05 0.13 0.13 95 1011.7
20260902081248 18 23 0.0 6.4 0.08 0.13 0.13 95 1011.7
20260902081047 18 23 0.0 6.4 0.08 0.13 0.13 95 1011.9
20260902080847 18 24 0.0 6.4 0.08 0.13 0.13 95 1012.0
20260902080646 18 1 0.0 11.3 0.08 0.13 0.13 95 1011.9
20260902080558 18 1 0.0 11.3 0.08 0.13 0.13 95 1011.8
20260902080546 18 1 0.0 11.3 0.08 0.13 0.13 95 1011.8
20260902080247 18 1 0.0 11.3 0.08 0.13 0.13 94 1011.8
20260902080157 18 32 0.0 11.3 0.08 0.13 0.13 94 1011.9
20260902080055 18 32 0.0 11.3 0.08 0.13 0.13 94 1011.9
20260902075847 18 31 0.0 11.3 0.00 0.05 0.13 94 1012.0
20260902075839 18 39 0.0 8.0 0.00 0.05 0.13 94 1012.5
20260902075817 18 39 0.0 8.0 0.00 0.05 0.13 94 1012.4
20260902075447 18 35 0.0 8.0 0.00 0.05 0.13 94 1012.6
20260902075248 18 27 0.0 4.8 0.00 0.05 0.13 94 1012.4
20260902075047 18 28 0.0 8.0 0.00 0.05 0.13 94 1012.2
20260902074916 19 28 0.0 8.0 0.00 0.05 0.13 94 1012.6
20260902074848 18 28 0.0 8.0 0.00 0.05 0.13 94 1012.4
20260902074835 19 28 0.0 8.0 0.00 0.05 0.13 94 1012.6
20260902074448 19 28 0.0 9.7 0.00 0.05 0.13 94 1012.7
20260902074347 19 28 0.0 9.7 0.00 0.05 0.13 94 1012.7
20260902074047 19 30 0.0 9.7 0.00 0.05 0.13 94 1012.7
20260902074033 19 30 0.0 9.7 0.00 0.05 0.13 94 1012.8
20260902073848 19 44 0.0 9.7 0.00 0.05 0.13 94 1012.7
20260902073826 19 25 0.0 9.7 0.03 0.05 0.10 94 1012.4
20260902073806 19 45 0.0 9.7 0.03 0.05 0.13 94 1012.5
20260902073448 19 154 0.0 9.7 0.03 0.05 0.10 94 1012.4
20260902073347 19 11 0.0 9.7 0.03 0.05 0.10 95 1012.3
20260902073047 19 11 0.0 16.1 0.03 0.05 0.10 95 1012.4
20260902073031 19 49 0.0 16.1 0.03 0.05 0.10 95 1012.2
20260902072948 19 32 0.0 16.1 0.05 0.05 0.10 94 1012.2
20260902072646 19 11 0.0 16.1 0.05 0.05 0.10 94 1012.2
20260902072530 19 18 0.0 16.1 0.05 0.05 0.10 94 1012.1
20260902072448 19 24 0.0 16.1 0.05 0.05 0.10 94 1012.0
20260902072247 19 30 0.0 16.1 0.05 0.05 0.10 94 1012.1
20260902072032 19 32 0.0 11.3 0.05 0.05 0.08 94 1012.2
20260902071949 19 32 0.0 11.3 0.05 0.05 0.08 94 1012.2
20260902071828 19 21 0.0 11.3 0.05 0.05 0.08 94 1012.2
20260902071824 19 34 0.0 11.3 0.05 0.05 0.08 93 1012.3
20260902071805 19 51 0.0 11.3 0.05 0.05 0.08 94 1012.1
20260902071233 19 35 0.0 6.4 0.05 0.05 0.05 93 1012.5
20260902071036 -17 35 0.0 0.0 0.00 0.00 0.00 1012.6
20260902070927 -17 0.0 0.0 0.05 0.05 0.05
20260902070634 -17 0.0 0.0 0.05 0.05 0.05
20260902070334 -17 0.0 0.0 0.05 0.05 0.05
20260902070211 -17 0.0 0.0 0.05 0.05 0.05
20260902070131 -17 0.0 0.0 0.05 0.05 0.05